Weather in Dambulla

Sri Lanka     7°52′19″N   80°39′07″E
temp.,
°C
wind,
m/s
gust,
m/s
humid.,
%
clouds,
%
prec.,
mm/h
press.,
hPa
HPBL,
m
11 april, sun
sun1123:30+23sw019482 15.4 101215
02:30+23ssw009493 0.0 101014
05:30+22s119674 0.9 101116
08:30+24nnw018795 1.7 1014198
11:30+32nnw115525 2.3 10121273
14:30+31se225736 1.9 10101474
17:30+26ene2487100 5.3 101099
20:30+23ese2695100 11.2 1013127
12 april, mon
mon1223:30+23se1197100 13.1 101322
02:30+22s119871 0.1 101114
05:30+21s119788 0.1 101212
08:30+26n007983 0.0 1014393
11:30+32ne224793 0.0 10131808
14:30+33ene224299 0.0 10092185
17:30+27e2776100 0.5 1010303
20:30+24se119086 0.6 101327
13 april, tue
tue1323:30+23sse119456 0.6 101317
02:30+22ssw1196100 0.0 101115
05:30+22s119633 0.0 101214
08:30+27e11748 0.0 1014563
11:30+32e234666 0.0 10121798
14:30+33e224082 0.0 10082176
17:30+29nw116076 0.3 1009165
20:30+24se009112 4.7 101211
14 april, wed
wed1423:30+23ssw11955 4.7 101312
02:30+22ssw119687 0.0 101016
05:30+22sw119658 0.0 101113
08:30+27se01745 0.0 1013462
11:30+33nne224635 0.0 10121911
14:30+32n114768 0.1 10081254
17:30+27w117195 0.3 100934
20:30+24wnw118823 2.6 101214
15 april, thu
thu1523:30+23sw11935 2.6 101214
02:30+22wsw119575 0.0 101019
05:30+22sw119562 0.0 101126
08:30+28ssw127042 0.0 1013522
11:30+33nnw114646 0.1 10111957
14:30+30sw1259100 0.6 1008348
17:30+25nw118280 1.8 100934
20:30+25wsw0087100 0.6 101112